Location: Bruch
(44.2051°N, 0.4120°E)
Time: 09:57:27
(UTC+00:00)

ATLAS CENTAUR R/B - Pass Details

Date: 29 November 2020
Orbit: 477 x 668 km, 64.7° (Epoch: 12 January)

Event Time Altitude Azimuth Distance (km) Brightness Sun altitude
Exits shadow 04:32:33 21° 44° (NE) 1,161 3.3 -27.9°
Drops below altitude 10° 04:35:34 10° 95° (E) 1,742 4.9 -27.4°
Sets 04:38:11 0° 111° (ESE) 2,661 6.0 -26.9°
